Location: Newark
(54.3167°N, 48.3667°E)
Time: 11:16:19
(UTC+00:00)

Envisat - Visible Passes

Search period start: 09 December 2019 00:00
Search period end: 19 December 2019 00:00
Orbit: 764 x 766 km, 98.1° (Epoch: 08 December)

Date Brightness Start Highest point End Pass type
(mag) Time Alt. Az. Time Alt. Az. Time Alt. Az.
09 Dec 6.2 01:58:52 10° ENE 02:00:25 11° E 02:01:58 10° E visible
09 Dec 3.6 03:35:27 10° NNE 03:40:31 62° ESE 03:45:33 10° S visible
09 Dec 3.7 13:18:44 10° ESE 13:23:08 31° ENE 13:27:33 10° N visible
09 Dec 3.7 14:56:59 10° S 15:01:57 54° W 15:06:58 10° NNW visible
10 Dec 4.9 02:58:55 10° NNE 03:03:31 33° E 03:08:06 10° SSE visible
10 Dec 2.9 14:20:01 10° SSE 14:25:06 82° ENE 14:30:14 10° NNW visible
10 Dec 5.6 16:01:14 10° SW 16:04:48 19° W 16:08:22 10° NW visible
11 Dec 5.8 02:22:52 10° NE 02:26:20 18° E 02:29:47 10° SE visible
11 Dec 3.0 04:00:56 10° NNE 04:06:03 85° WNW 04:11:09 10° SSW visible
11 Dec 3.3 13:43:37 10° SE 13:48:27 45° ENE 13:53:17 10° N visible
11 Dec 4.6 15:22:59 10° SSW 15:27:36 35° W 15:32:16 10° NNW visible
12 Dec 4.0 03:24:12 10° NNE 03:29:12 52° E 03:34:09 10° S visible
12 Dec 3.9 13:07:47 10° ESE 13:11:57 26° ENE 13:16:08 10° N visible
12 Dec 3.4 14:45:35 10° S 14:50:38 65° WSW 14:55:43 10° NNW visible
12 Dec 6.1 16:28:51 10° WSW 16:30:42 12° W 16:32:33 10° WNW visible
13 Dec 5.2 02:47:46 10° NNE 02:52:08 28° E 02:56:28 10° SSE visible
13 Dec 2.9 14:08:48 10° SSE 14:13:50 69° ENE 14:18:55 10° NNW visible
13 Dec 5.3 15:49:24 10° SW 15:53:22 23° W 15:57:21 10° NW visible
14 Dec 6.0 02:12:00 10° NE 02:14:54 15° E 02:17:45 10° ESE visible
14 Dec 3.2 03:49:38 10° NNE 03:54:46 81° ESE 03:59:51 10° SSW visible
14 Dec 3.5 13:32:34 10° SE 13:37:13 38° ENE 13:41:55 10° N visible
14 Dec 4.2 15:11:27 10° SSW 15:16:15 41° W 15:21:05 10° NNW visible
15 Dec 4.3 03:12:59 10° NNE 03:17:51 43° E 03:22:40 10° S visible
15 Dec 3.1 14:34:15 10° SSE 14:39:19 78° WSW 14:44:27 10° NNW visible
15 Dec 5.9 16:16:28 10° WSW 16:19:13 14° W 16:22:00 10° NW visible
16 Dec 5.5 02:36:42 10° NE 02:40:45 23° E 02:44:46 10° SE visible
16 Dec 3.0 04:15:11 10° N 04:20:15 67° WNW 04:25:17 10° SSW visible
16 Dec 3.0 13:57:37 10° SE 14:02:35 58° ENE 14:07:35 10° N visible
16 Dec 5.1 15:37:40 10° SSW 15:41:58 27° W 15:46:17 10° NW visible
17 Dec 6.1 02:01:24 10° ENE 02:03:25 12° E 02:05:28 10° ESE visible
17 Dec 3.5 03:38:22 10° NNE 03:43:27 67° ESE 03:48:31 10° S visible
17 Dec 3.7 13:21:33 10° ESE 13:26:01 32° ENE 13:30:32 10° N visible
17 Dec 3.9 14:59:58 10° S 15:04:54 50° W 15:09:52 10° NNW visible
18 Dec 4.7 03:01:48 10° NNE 03:06:29 36° E 03:11:08 10° SSE visible
18 Dec 2.9 14:22:57 10° SSE 14:28:02 88° ENE 14:33:10 10° NNW visible
18 Dec 5.7 16:04:25 10° SW 16:07:47 18° W 16:11:09 10° NW visible
